This demonstration page uses our WeatherBlox Daily Observations layout. Learn more.

Left ArrowRight Arrow

Hourly Observations for August 29, 2019

Temp ( °F °C ) Dew Point ( °F °C ) Humidity (%) Winds ( mph kmh ) Pressure ( in mb ) Visibility ( mi km ) Precip ( " mm )
12:56 am 00:56 Mostly Clear 72 22 61 16 69 69 S 6 9 29.93 1014 10 16 0.00 0.00
1:56 am 01:56 Clear 72 22 61 16 69 69 SE 3 6 29.93 1013 10 16 0.00 0.00
2:56 am 02:56 Partly Cloudy 70 21 61 16 73 73 S 6 9 29.92 1013 10 16 0.00 0.00
3:56 am 03:56 Partly Cloudy 70 21 61 16 73 73 SSE 6 9 29.91 1013 10 16 0.00 0.00
4:56 am 04:56 Cloudy 70 21 61 16 73 73 SSE 6 9 29.90 1012 10 16 0.00 0.00
5:56 am 05:56 Cloudy 70 21 63 17 78 78 SSE 5 7 29.90 1012 10 16 0.00 0.00
6:56 am 06:56 Mostly Cloudy 70 21 63 17 78 78 SSW 3 6 29.89 1012 10 16 0.00 0.00
8:56 am 08:56 Mostly Cloudy 75 24 64 18 69 69 WSW 6 9 29.92 1013 10 16 0.00 0.00
9:56 am 09:56 Mostly Sunny 79 26 66 19 65 65 W 8 13 29.91 1013 10 16 0.00 0.00
10:56 am 10:56 Mostly Sunny 82 28 68 20 62 62 W 12 19 29.91 1013 10 16 0.00 0.00
11:56 am 11:56 Mostly Sunny 86 30 70 21 59 59 WNW 9 15 29.91 1013 10 16 0.00 0.00
12:56 pm 12:56 Mostly Sunny 88 31 70 21 55 55 Calm 29.91 1013 10 16 0.00 0.00
1:56 pm 13:56 Mostly Cloudy 90 32 66 19 46 46 WNW 6 9 29.91 1013 10 16 0.00 0.00
2:56 pm 14:56 Mostly Cloudy 91 33 66 19 44 44 Calm 29.90 1013 10 16 0.00 0.00
3:56 pm 15:56 Mostly Sunny 90 32 66 19 46 46 NE 8 13 29.91 1013 10 16 0.00 0.00
4:56 pm 16:56 Mostly Sunny 88 31 64 18 46 46 NNE 9 15 29.92 1013 10 16 0.00 0.00
5:56 pm 17:56 Mostly Sunny 86 30 68 20 55 55 N 7 11 29.91 1013 10 16 0.00 0.00
6:56 pm 18:56 Partly Cloudy 84 29 66 19 55 55 N 10 17 29.92 1013 10 16 0.00 0.00
7:56 pm 19:56 Partly Cloudy 81 27 61 16 51 51 N 5 7 29.96 1015 10 16 0.00 0.00
8:56 pm 20:56 Mostly Cloudy 79 26 55 13 45 45 N 9 15 29.96 1015 10 16 0.00 0.00
9:56 pm 21:56 Mostly Cloudy 77 25 50 10 39 39 N 7 11 29.98 1015 10 16 0.00 0.00
10:56 pm 22:56 Mostly Cloudy 75 24 48 9 39 39 NNE 7 11 29.99 1016 10 16 0.00 0.00
11:56 pm 23:56 Mostly Cloudy 72 22 54 12 53 53 ENE 6 9 30.03 1017 10 16 0.00 0.00

Powered by AerisWeather